Terminal Aerodrome Forecast
Issued by NWS

Home | Current Version | Previous Version | Text Only | Print | Product List | Glossary On
Versions: 1 2 3 4 5 6 7 8 9 10 11 12 13 14 15 16 17 18 19 20 21 22 23 24 25 26 27 28 29 30 31 32 33
000
FTUS45 KGJT 310325 AAB
TAFASE
TAF AMD
KASE 310325Z 3103/3124 33005KT 5SM -SN BR OVC040
     FM310700 18003KT 3SM -SN BR OVC025
     FM311500 00000KT 1SM -SN BR OVC010
     FM311800 32005KT 1/2SM SN FG OVC005
     FM312100 35005KT 5SM -SN BR SCT005 BKN015=

USA.gov is the U.S. government's official web portal to all federal, state and local government web resources and services.